ZSMUL FNMA-FZAA

Flight info

Callsign ZSMUL
Flight time 1h 47m
Altitude 12000
Route MA DCT OGNIK OGNIK1B
Aircraft DC6/M-SDFGRWY/S

Departure

Time 2026-05-04 20:00
Airport Malanje Airport (FNMA)

Arrival

Time 2026-05-04 21:47
Airport Ndjili International Airport (FZAA)
Time Latitude Longitude Altitude Speed Heading
2026-05-04 19:39 -9.52672 16.31865 3850 ft 0 kts 90°
2026-05-04 19:48 -9.52672 16.31857 3853 ft 4 kts 81°
2026-05-04 19:48 -9.52679 16.31842 3849 ft 4 kts 352°
2026-05-04 19:48 -9.52696 16.31854 3857 ft 4 kts 305°
2026-05-04 19:49 -9.52708 16.31873 3854 ft 1 kts 304°
2026-05-04 19:52 -9.52706 16.31870 3850 ft 1 kts 307°
2026-05-04 19:53 -9.52698 16.31860 3851 ft 2 kts 305°
2026-05-04 19:53 -9.52686 16.31842 3852 ft 4 kts 303°
2026-05-04 19:53 -9.52671 16.31816 3853 ft 5 kts 290°
2026-05-04 19:53 -9.52670 16.31780 3850 ft 6 kts 260°
2026-05-04 19:54 -9.52681 16.31739 3852 ft 7 kts 253°
2026-05-04 19:54 -9.52695 16.31690 3850 ft 8 kts 253°
2026-05-04 19:54 -9.52715 16.31636 3852 ft 8 kts 233°
2026-05-04 19:54 -9.52752 16.31626 3846 ft 5 kts 151°
2026-05-04 19:55 -9.52771 16.31651 3849 ft 5 kts 121°
2026-05-04 19:55 -9.52803 16.31704 3844 ft 12 kts 123°
2026-05-04 19:55 -9.52862 16.31796 3854 ft 19 kts 124°
2026-05-04 19:55 -9.52948 16.31921 3852 ft 23 kts 125°
2026-05-04 19:56 -9.53010 16.32054 3854 ft 9 kts 108°
2026-05-04 19:56 -9.53013 16.32061 3854 ft 0 kts 141°
2026-05-04 19:56 -9.53014 16.32061 3854 ft 0 kts 148°
2026-05-04 19:56 -9.53017 16.32062 3853 ft 0 kts 175°
2026-05-04 19:57 -9.53021 16.32060 3854 ft 1 kts 219°
2026-05-04 19:57 -9.53023 16.32048 3855 ft 4 kts 278°
2026-05-04 19:57 -9.53006 16.32015 3858 ft 5 kts 304°
2026-05-04 19:57 -9.52973 16.31965 3853 ft 18 kts 303°
2026-05-04 19:58 -9.52836 16.31754 3844 ft 55 kts 303°
2026-05-04 19:58 -9.52559 16.31331 3843 ft 88 kts 303°
2026-05-04 19:58 -9.52165 16.30727 3857 ft 114 kts 303°
2026-05-04 19:58 -9.51701 16.30028 3902 ft 125 kts 304°
2026-05-04 19:59 -9.51177 16.29297 3962 ft 134 kts 308°
2026-05-04 19:59 -9.50433 16.28691 4026 ft 143 kts 333°
2026-05-04 19:59 -9.49438 16.28423 4103 ft 152 kts 357°
2026-05-04 19:59 -9.48369 16.28597 4175 ft 161 kts 21°
2026-05-04 20:00 -9.47359 16.29139 4285 ft 167 kts 30°
2026-05-04 20:00 -9.46335 16.29750 4399 ft 175 kts 31°
2026-05-04 20:00 -9.45298 16.30367 4523 ft 175 kts 31°
2026-05-04 20:00 -9.44231 16.30997 4659 ft 178 kts 31°
2026-05-04 20:01 -9.43146 16.31635 4795 ft 180 kts 31°
2026-05-04 20:01 -9.42056 16.32278 4934 ft 182 kts 31°
2026-05-04 20:01 -9.40969 16.32917 5085 ft 183 kts 31°
2026-05-04 20:01 -9.39862 16.33567 5219 ft 184 kts 31°
2026-05-04 20:02 -9.38745 16.34221 5373 ft 185 kts 31°
2026-05-04 20:02 -9.37641 16.34865 5527 ft 186 kts 31°
2026-05-04 20:02 -9.36518 16.35521 5682 ft 186 kts 31°
2026-05-04 20:02 -9.35390 16.36179 5837 ft 187 kts 31°
2026-05-04 20:03 -9.34260 16.36839 5992 ft 187 kts 31°
2026-05-04 20:03 -9.33126 16.37451 6117 ft 188 kts 21°
2026-05-04 20:03 -9.31822 16.37556 6202 ft 192 kts 348°
2026-05-04 20:03 -9.30635 16.36946 6325 ft 193 kts 317°
2026-05-04 20:04 -9.29682 16.36004 6503 ft 190 kts 319°
2026-05-04 20:04 -9.28577 16.35261 6639 ft 191 kts 333°
2026-05-04 20:04 -9.27340 16.34821 6758 ft 191 kts 351°
2026-05-04 20:04 -9.26015 16.34716 6913 ft 190 kts 358°
2026-05-04 20:05 -9.24696 16.34642 7063 ft 190 kts 356°
2026-05-04 20:05 -9.23378 16.34548 7207 ft 190 kts 357°
2026-05-04 20:05 -9.22071 16.34455 7355 ft 190 kts 356°
2026-05-04 20:05 -9.20746 16.34360 7507 ft 191 kts 357°
2026-05-04 20:06 -9.19419 16.34264 7659 ft 191 kts 357°
2026-05-04 20:06 -9.18106 16.34169 7809 ft 191 kts 357°
2026-05-04 20:06 -9.16776 16.34073 7959 ft 191 kts 357°
2026-05-04 20:06 -9.15451 16.33979 8108 ft 191 kts 357°
2026-05-04 20:07 -9.14125 16.33883 8255 ft 190 kts 357°
2026-05-04 20:07 -9.12799 16.33788 8402 ft 190 kts 357°
2026-05-04 20:07 -9.11479 16.33692 8547 ft 190 kts 357°
2026-05-04 20:07 -9.10173 16.33597 8688 ft 191 kts 357°
2026-05-04 20:08 -9.08847 16.33502 8834 ft 191 kts 357°
2026-05-04 20:08 -9.07513 16.33406 8978 ft 191 kts 357°
2026-05-04 20:08 -9.06196 16.33313 9119 ft 191 kts 357°
2026-05-04 20:08 -9.04868 16.33214 9271 ft 191 kts 357°
2026-05-04 20:09 -9.03536 16.33120 9415 ft 191 kts 358°
2026-05-04 20:09 -9.02206 16.33024 9555 ft 191 kts 358°
2026-05-04 20:09 -9.00892 16.32928 9696 ft 191 kts 358°
2026-05-04 20:09 -8.99562 16.32834 9834 ft 190 kts 358°
2026-05-04 20:10 -8.98251 16.32740 9960 ft 190 kts 358°
2026-05-04 20:10 -8.96924 16.32643 10081 ft 190 kts 358°
2026-05-04 20:10 -8.95604 16.32549 10193 ft 190 kts 358°
2026-05-04 20:10 -8.94299 16.32454 10303 ft 189 kts 358°
2026-05-04 20:11 -8.92984 16.32361 10411 ft 189 kts 358°
2026-05-04 20:11 -8.91662 16.32264 10521 ft 189 kts 358°
2026-05-04 20:11 -8.90361 16.32171 10622 ft 189 kts 358°
2026-05-04 20:11 -8.89043 16.32077 10732 ft 189 kts 358°
2026-05-04 20:12 -8.87745 16.31982 10835 ft 189 kts 358°
2026-05-04 20:12 -8.86432 16.31889 10930 ft 188 kts 358°
2026-05-04 20:12 -8.85119 16.31794 11033 ft 188 kts 358°
2026-05-04 20:12 -8.83830 16.31702 11127 ft 188 kts 358°
2026-05-04 20:13 -8.82519 16.31606 11222 ft 188 kts 358°
2026-05-04 20:13 -8.81216 16.31514 11316 ft 188 kts 358°
2026-05-04 20:13 -8.79915 16.31419 11403 ft 187 kts 358°
2026-05-04 20:13 -8.78604 16.31327 11506 ft 189 kts 358°
2026-05-04 20:14 -8.77297 16.31232 11625 ft 191 kts 358°
2026-05-04 20:14 -8.75969 16.31137 11747 ft 191 kts 358°
2026-05-04 20:14 -8.74634 16.31041 11870 ft 192 kts 358°
2026-05-04 20:14 -8.73311 16.30945 11986 ft 193 kts 358°
2026-05-04 20:15 -8.71945 16.30848 12002 ft 199 kts 358°
2026-05-04 20:15 -8.70560 16.30748 12005 ft 199 kts 358°
2026-05-04 20:15 -8.69177 16.30648 12007 ft 199 kts 358°
2026-05-04 20:15 -8.67789 16.30548 12011 ft 200 kts 358°
2026-05-04 20:16 -8.66412 16.30450 12006 ft 201 kts 358°
2026-05-04 20:16 -8.65009 16.30348 12009 ft 201 kts 358°
2026-05-04 20:16 -8.63603 16.30246 12009 ft 202 kts 358°
2026-05-04 20:16 -8.62207 16.30148 12005 ft 203 kts 358°
2026-05-04 20:17 -8.60789 16.30046 12011 ft 204 kts 358°
2026-05-04 20:17 -8.59380 16.29945 12008 ft 205 kts 358°
2026-05-04 20:17 -8.57946 16.29841 12004 ft 206 kts 358°
2026-05-04 20:17 -8.56510 16.29738 12008 ft 207 kts 358°
2026-05-04 20:18 -8.55080 16.29636 12005 ft 208 kts 358°
2026-05-04 20:18 -8.53625 16.29529 12006 ft 209 kts 358°
2026-05-04 20:18 -8.52167 16.29427 12004 ft 210 kts 358°
2026-05-04 20:18 -8.50723 16.29323 12009 ft 210 kts 358°
2026-05-04 20:19 -8.49259 16.29218 12005 ft 211 kts 358°
2026-05-04 20:19 -8.47793 16.29113 12007 ft 211 kts 358°
2026-05-04 20:19 -8.46316 16.29006 12003 ft 212 kts 358°
2026-05-04 20:19 -8.44854 16.28901 12007 ft 212 kts 358°
2026-05-04 20:20 -8.43374 16.28793 12005 ft 213 kts 358°
2026-05-04 20:20 -8.41907 16.28691 12003 ft 213 kts 358°
2026-05-04 20:20 -8.40421 16.28583 12002 ft 214 kts 358°
2026-05-04 20:20 -8.38933 16.28477 12001 ft 214 kts 358°
2026-05-04 20:21 -8.37447 16.28370 11996 ft 214 kts 358°
2026-05-04 20:21 -8.35955 16.28262 11999 ft 214 kts 358°
2026-05-04 20:21 -8.32986 16.28049 12001 ft 215 kts 358°
2026-05-04 20:22 -8.31490 16.27942 11999 ft 215 kts 358°
2026-05-04 20:22 -8.29994 16.27834 12000 ft 215 kts 358°
2026-05-04 20:22 -8.28492 16.27728 11998 ft 215 kts 358°
2026-05-04 20:22 -8.27011 16.27620 11996 ft 216 kts 358°
2026-05-04 20:23 -8.25509 16.27514 11999 ft 216 kts 358°
2026-05-04 20:23 -8.24007 16.27408 11995 ft 215 kts 358°
2026-05-04 20:23 -8.22524 16.27299 11997 ft 216 kts 358°
2026-05-04 20:23 -8.21021 16.27191 11998 ft 216 kts 358°
2026-05-04 20:24 -8.19516 16.27084 11998 ft 216 kts 358°
2026-05-04 20:24 -8.18013 16.26975 11999 ft 216 kts 358°
2026-05-04 20:24 -8.16525 16.26869 11995 ft 217 kts 358°
2026-05-04 20:24 -8.15015 16.26759 11994 ft 217 kts 358°
2026-05-04 20:25 -8.13505 16.26653 11995 ft 217 kts 358°
2026-05-04 20:25 -8.11992 16.26546 11996 ft 217 kts 358°
2026-05-04 20:25 -8.10503 16.26437 11994 ft 218 kts 358°
2026-05-04 20:25 -8.08981 16.26329 11990 ft 218 kts 358°
2026-05-04 20:26 -8.07468 16.26220 11990 ft 217 kts 358°
2026-05-04 20:26 -8.05955 16.26116 11989 ft 217 kts 358°
2026-05-04 20:26 -8.04464 16.26005 11989 ft 218 kts 357°
2026-05-04 20:26 -8.02949 16.25894 11990 ft 218 kts 358°
2026-05-04 20:27 -8.01434 16.25787 11988 ft 218 kts 358°
2026-05-04 20:27 -7.99917 16.25679 11992 ft 218 kts 358°
2026-05-04 20:27 -7.98419 16.25573 11991 ft 218 kts 358°
2026-05-04 20:27 -7.96901 16.25460 11993 ft 218 kts 358°
2026-05-04 20:28 -7.95895 16.25389 11987 ft 218 kts 358°
2026-05-04 20:28 -7.94375 16.25284 11988 ft 218 kts 358°
2026-05-04 20:28 -7.92856 16.25174 11988 ft 218 kts 358°
2026-05-04 20:28 -7.91360 16.25067 11989 ft 218 kts 358°
2026-05-04 20:29 -7.89842 16.24958 11990 ft 218 kts 358°
2026-05-04 20:29 -7.88323 16.24849 11987 ft 218 kts 358°
2026-05-04 20:29 -7.86798 16.24739 11987 ft 219 kts 358°
2026-05-04 20:29 -7.85298 16.24634 11986 ft 219 kts 358°
2026-05-04 20:30 -7.83779 16.24524 11987 ft 219 kts 358°
2026-05-04 20:30 -7.82252 16.24415 11988 ft 219 kts 358°
2026-05-04 20:30 -7.80744 16.24306 11986 ft 219 kts 358°
2026-05-04 20:30 -7.79218 16.24198 11985 ft 219 kts 358°
2026-05-04 20:31 -7.77692 16.24089 11982 ft 219 kts 358°
2026-05-04 20:31 -7.76186 16.23980 11982 ft 219 kts 358°
2026-05-04 20:31 -7.74663 16.23871 11983 ft 219 kts 358°
2026-05-04 20:31 -7.73141 16.23763 11983 ft 219 kts 358°
2026-05-04 20:32 -7.71618 16.23654 11983 ft 219 kts 358°
2026-05-04 20:32 -7.70113 16.23548 11983 ft 219 kts 358°
2026-05-04 20:32 -7.68590 16.23438 11982 ft 219 kts 358°
2026-05-04 20:32 -7.67065 16.23327 11982 ft 219 kts 358°
2026-05-04 20:33 -7.65543 16.23219 11982 ft 219 kts 358°
2026-05-04 20:33 -7.64021 16.23110 11979 ft 219 kts 358°
2026-05-04 20:33 -7.62517 16.23004 11981 ft 219 kts 358°
2026-05-04 20:33 -7.60994 16.22898 11979 ft 219 kts 358°
2026-05-04 20:34 -7.59467 16.22784 11979 ft 219 kts 358°
2026-05-04 20:34 -7.57963 16.22677 11980 ft 219 kts 358°
2026-05-04 20:34 -7.56439 16.22569 11976 ft 219 kts 358°
2026-05-04 20:34 -7.54906 16.22459 11981 ft 220 kts 358°
2026-05-04 20:35 -7.53392 16.22351 11977 ft 220 kts 358°
2026-05-04 20:35 -7.51863 16.22240 11977 ft 220 kts 358°
2026-05-04 20:35 -7.50327 16.22134 11977 ft 220 kts 358°
2026-05-04 20:35 -7.48791 16.22023 11976 ft 220 kts 358°
2026-05-04 20:36 -7.47280 16.21914 11975 ft 220 kts 358°
2026-05-04 20:36 -7.45744 16.21805 11973 ft 220 kts 358°
2026-05-04 20:36 -7.44213 16.21694 11971 ft 220 kts 358°
2026-05-04 20:36 -7.42686 16.21587 11970 ft 219 kts 358°
2026-05-04 20:37 -7.41182 16.21478 11973 ft 219 kts 358°
2026-05-04 20:37 -7.39657 16.21370 11972 ft 219 kts 358°
2026-05-04 20:37 -7.38130 16.21261 11971 ft 219 kts 358°
2026-05-04 20:37 -7.36626 16.21153 11974 ft 219 kts 358°
2026-05-04 20:38 -7.35093 16.21043 11974 ft 220 kts 358°
2026-05-04 20:38 -7.33563 16.20936 11976 ft 220 kts 358°
2026-05-04 20:38 -7.32048 16.20828 11976 ft 220 kts 358°
2026-05-04 20:38 -7.30518 16.20717 11978 ft 220 kts 358°
2026-05-04 20:39 -7.28988 16.20608 11977 ft 220 kts 358°
2026-05-04 20:39 -7.27451 16.20501 11981 ft 220 kts 358°
2026-05-04 20:39 -7.25938 16.20390 11981 ft 220 kts 358°
2026-05-04 20:39 -7.24396 16.20279 11980 ft 220 kts 358°
2026-05-04 20:40 -7.22878 16.20172 11977 ft 221 kts 358°
2026-05-04 20:40 -7.21340 16.20062 11978 ft 221 kts 358°
2026-05-04 20:40 -7.19801 16.19952 11976 ft 221 kts 358°
2026-05-04 20:40 -7.18284 16.19845 11978 ft 221 kts 358°
2026-05-04 20:41 -7.16750 16.19735 11982 ft 221 kts 358°
2026-05-04 20:41 -7.15211 16.19626 11980 ft 221 kts 358°
2026-05-04 20:41 -7.13684 16.19516 11983 ft 221 kts 358°
2026-05-04 20:41 -7.12142 16.19406 11982 ft 221 kts 358°
2026-05-04 20:42 -7.10605 16.19298 11980 ft 221 kts 358°
2026-05-04 20:42 -7.09089 16.19188 11981 ft 221 kts 358°
2026-05-04 20:42 -7.07549 16.19078 11981 ft 221 kts 358°
2026-05-04 20:42 -7.06011 16.18969 11981 ft 221 kts 358°
2026-05-04 20:43 -7.04479 16.18860 11983 ft 221 kts 358°
2026-05-04 20:43 -7.02962 16.18751 11983 ft 221 kts 358°
2026-05-04 20:43 -7.01422 16.18642 11981 ft 221 kts 358°
2026-05-04 20:43 -6.99885 16.18532 11986 ft 220 kts 358°
2026-05-04 20:44 -6.98354 16.18423 11982 ft 220 kts 358°
2026-05-04 20:44 -6.96845 16.18315 11982 ft 220 kts 358°
2026-05-04 20:44 -6.95308 16.18206 11979 ft 220 kts 358°
2026-05-04 20:44 -6.93777 16.18097 11982 ft 220 kts 358°
2026-05-04 20:45 -6.92247 16.17987 11982 ft 220 kts 358°
2026-05-04 20:45 -6.90731 16.17880 11980 ft 220 kts 358°
2026-05-04 20:45 -6.89198 16.17771 11980 ft 220 kts 358°
2026-05-04 20:45 -6.87660 16.17660 11981 ft 220 kts 358°
2026-05-04 20:46 -6.86127 16.17552 11980 ft 220 kts 358°
2026-05-04 20:46 -6.84613 16.17444 11981 ft 220 kts 358°
2026-05-04 20:46 -6.83082 16.17335 11983 ft 220 kts 358°
2026-05-04 20:46 -6.81537 16.17224 11980 ft 220 kts 358°
2026-05-04 20:47 -6.80023 16.17115 11984 ft 221 kts 358°
2026-05-04 20:47 -6.78489 16.17008 11986 ft 221 kts 358°
2026-05-04 20:47 -6.76944 16.16898 11986 ft 221 kts 358°
2026-05-04 20:47 -6.75423 16.16789 11988 ft 221 kts 358°
2026-05-04 20:48 -6.73883 16.16681 11986 ft 221 kts 358°
2026-05-04 20:48 -6.72358 16.16571 11987 ft 221 kts 358°
2026-05-04 20:48 -6.70820 16.16462 11985 ft 221 kts 358°
2026-05-04 20:48 -6.69284 16.16351 11982 ft 221 kts 358°
2026-05-04 20:49 -6.67750 16.16242 11980 ft 220 kts 358°
2026-05-04 20:49 -6.66235 16.16135 11980 ft 220 kts 358°
2026-05-04 20:49 -6.64701 16.16028 11977 ft 220 kts 358°
2026-05-04 20:49 -6.63170 16.15917 11977 ft 220 kts 358°
2026-05-04 20:50 -6.61641 16.15806 11978 ft 219 kts 358°
2026-05-04 20:50 -6.60127 16.15700 11977 ft 219 kts 358°
2026-05-04 20:50 -6.58605 16.15593 11974 ft 220 kts 358°
2026-05-04 20:50 -6.57072 16.15481 11975 ft 220 kts 358°
2026-05-04 20:51 -6.55562 16.15376 11977 ft 220 kts 358°
2026-05-04 20:51 -6.54027 16.15267 11979 ft 221 kts 358°
2026-05-04 20:51 -6.52488 16.15158 11979 ft 221 kts 358°
2026-05-04 20:51 -6.50967 16.15048 11976 ft 221 kts 358°
2026-05-04 20:52 -6.49430 16.14936 11974 ft 221 kts 358°
2026-05-04 20:52 -6.47893 16.14830 11978 ft 221 kts 358°
2026-05-04 20:52 -6.46358 16.14722 11977 ft 221 kts 358°
2026-05-04 20:52 -6.44825 16.14612 11974 ft 221 kts 358°
2026-05-04 20:53 -6.43283 16.14502 11973 ft 221 kts 358°
2026-05-04 20:53 -6.41762 16.14393 11977 ft 221 kts 358°
2026-05-04 20:53 -6.40224 16.14285 11971 ft 221 kts 358°
2026-05-04 20:53 -6.38681 16.14174 11967 ft 221 kts 358°
2026-05-04 20:54 -6.37142 16.14065 11967 ft 221 kts 358°
2026-05-04 20:54 -6.35624 16.13957 11968 ft 221 kts 358°
2026-05-04 20:54 -6.34089 16.13843 11966 ft 220 kts 358°
2026-05-04 20:54 -6.32554 16.13742 11966 ft 220 kts 358°
2026-05-04 20:55 -6.31033 16.13633 11961 ft 221 kts 358°
2026-05-04 20:55 -6.29495 16.13522 11961 ft 221 kts 358°
2026-05-04 20:55 -6.27956 16.13412 11964 ft 221 kts 358°
2026-05-04 20:55 -6.26416 16.13303 11963 ft 221 kts 358°
2026-05-04 20:56 -6.24895 16.13194 11964 ft 221 kts 358°
2026-05-04 20:56 -6.23353 16.13086 11961 ft 222 kts 358°
2026-05-04 20:56 -6.21828 16.12977 11964 ft 222 kts 358°
2026-05-04 20:56 -6.20290 16.12865 11960 ft 222 kts 358°
2026-05-04 20:57 -6.18744 16.12758 11963 ft 222 kts 358°
2026-05-04 20:57 -6.17216 16.12649 11961 ft 221 kts 358°
2026-05-04 20:57 -6.15679 16.12540 11958 ft 221 kts 358°
2026-05-04 20:57 -6.14142 16.12431 11956 ft 221 kts 358°
2026-05-04 20:58 -6.12604 16.12322 11956 ft 221 kts 358°
2026-05-04 20:58 -6.11083 16.12212 11953 ft 221 kts 358°
2026-05-04 20:58 -6.09549 16.12105 11954 ft 221 kts 358°
2026-05-04 20:58 -6.08009 16.11994 11951 ft 221 kts 358°
2026-05-04 20:59 -6.06475 16.11886 11951 ft 221 kts 358°
2026-05-04 20:59 -6.04941 16.11777 11946 ft 221 kts 358°
2026-05-04 20:59 -6.03430 16.11669 11948 ft 220 kts 358°
2026-05-04 20:59 -6.01897 16.11561 11948 ft 220 kts 358°
2026-05-04 21:00 -6.00358 16.11451 11948 ft 221 kts 358°
2026-05-04 21:00 -5.98843 16.11344 11947 ft 221 kts 358°
2026-05-04 21:00 -5.97301 16.11234 11950 ft 221 kts 358°
2026-05-04 21:00 -5.95760 16.11126 11955 ft 221 kts 358°
2026-05-04 21:01 -5.94216 16.11015 11951 ft 221 kts 358°
2026-05-04 21:01 -5.92698 16.10909 11951 ft 221 kts 358°
2026-05-04 21:01 -5.91156 16.10802 11951 ft 222 kts 357°
2026-05-04 21:01 -5.89608 16.10685 11955 ft 221 kts 358°
2026-05-04 21:02 -5.88090 16.10579 11952 ft 221 kts 358°
2026-05-04 21:02 -5.86547 16.10471 11951 ft 222 kts 358°
2026-05-04 21:02 -5.85005 16.10364 11954 ft 222 kts 358°
2026-05-04 21:02 -5.83465 16.10251 11953 ft 222 kts 358°
2026-05-04 21:03 -5.81940 16.10143 11950 ft 222 kts 358°
2026-05-04 21:03 -5.80397 16.10035 11950 ft 222 kts 358°
2026-05-04 21:03 -5.78852 16.09926 11951 ft 222 kts 358°
2026-05-04 21:03 -5.77310 16.09815 11951 ft 222 kts 358°
2026-05-04 21:04 -5.75766 16.09706 11957 ft 222 kts 358°
2026-05-04 21:04 -5.74243 16.09597 11958 ft 222 kts 358°
2026-05-04 21:04 -5.72692 16.09489 11956 ft 222 kts 358°
2026-05-04 21:04 -5.71143 16.09380 11955 ft 222 kts 357°
2026-05-04 21:05 -5.69622 16.09269 11951 ft 221 kts 357°
2026-05-04 21:05 -5.68088 16.09160 11954 ft 220 kts 358°
2026-05-04 21:05 -5.66549 16.09052 11955 ft 221 kts 358°
2026-05-04 21:05 -5.65011 16.08946 11962 ft 222 kts 358°
2026-05-04 21:06 -5.63470 16.08833 11961 ft 222 kts 357°
2026-05-04 21:06 -5.61944 16.08725 11965 ft 222 kts 358°
2026-05-04 21:06 -5.60398 16.08616 11963 ft 222 kts 358°
2026-05-04 21:06 -5.58869 16.08508 11970 ft 222 kts 358°
2026-05-04 21:07 -5.57321 16.08398 11963 ft 222 kts 357°
2026-05-04 21:07 -5.55775 16.08288 11964 ft 222 kts 357°
2026-05-04 21:07 -5.54230 16.08176 11961 ft 222 kts 356°
2026-05-04 21:07 -5.52754 16.07736 11951 ft 223 kts 332°
2026-05-04 21:08 -5.51464 16.06894 11967 ft 222 kts 327°
2026-05-04 21:08 -5.50162 16.06043 11968 ft 222 kts 330°
2026-05-04 21:08 -5.48831 16.05242 11968 ft 222 kts 330°
2026-05-04 21:08 -5.47517 16.04447 11965 ft 223 kts 330°
2026-05-04 21:09 -5.46181 16.03633 11969 ft 223 kts 330°
2026-05-04 21:09 -5.44868 16.02832 11969 ft 223 kts 330°
2026-05-04 21:09 -5.43542 16.02023 11965 ft 223 kts 330°
2026-05-04 21:09 -5.42205 16.01207 11967 ft 223 kts 330°
2026-05-04 21:10 -5.40873 16.00396 11965 ft 224 kts 330°
2026-05-04 21:10 -5.39556 15.99594 11965 ft 224 kts 330°
2026-05-04 21:10 -5.38221 15.98780 11967 ft 224 kts 330°
2026-05-04 21:10 -5.36887 15.97967 11970 ft 224 kts 330°
2026-05-04 21:11 -5.35547 15.97149 11972 ft 224 kts 330°
2026-05-04 21:11 -5.34206 15.96335 11971 ft 224 kts 330°
2026-05-04 21:11 -5.32871 15.95520 11973 ft 224 kts 330°
2026-05-04 21:11 -5.31548 15.94713 11971 ft 225 kts 330°
2026-05-04 21:12 -5.30208 15.93898 11970 ft 225 kts 330°
2026-05-04 21:12 -5.28867 15.93081 11971 ft 225 kts 330°
2026-05-04 21:12 -5.27527 15.92265 11971 ft 225 kts 330°
2026-05-04 21:12 -5.26204 15.91458 11968 ft 225 kts 330°
2026-05-04 21:13 -5.24861 15.90641 11970 ft 225 kts 330°
2026-05-04 21:13 -5.23517 15.89821 11970 ft 225 kts 330°
2026-05-04 21:13 -5.22173 15.89003 11968 ft 225 kts 330°
2026-05-04 21:13 -5.20846 15.88195 11971 ft 225 kts 330°
2026-05-04 21:14 -5.19502 15.87377 11967 ft 225 kts 330°
2026-05-04 21:14 -5.18155 15.86556 11968 ft 226 kts 330°
2026-05-04 21:14 -5.17262 15.86014 11970 ft 226 kts 330°
2026-05-04 21:14 -5.15914 15.85192 11970 ft 226 kts 330°
2026-05-04 21:15 -5.14587 15.84384 11967 ft 226 kts 330°
2026-05-04 21:15 -5.13241 15.83565 11966 ft 226 kts 330°
2026-05-04 21:15 -5.11898 15.82746 11966 ft 226 kts 330°
2026-05-04 21:15 -5.10552 15.81928 11966 ft 226 kts 330°
2026-05-04 21:16 -5.09205 15.81107 11963 ft 226 kts 330°
2026-05-04 21:16 -5.07855 15.80286 11964 ft 226 kts 330°
2026-05-04 21:16 -5.06511 15.79468 11959 ft 226 kts 330°
2026-05-04 21:16 -5.05176 15.78655 11955 ft 226 kts 330°
2026-05-04 21:17 -5.03833 15.77837 11956 ft 226 kts 330°
2026-05-04 21:17 -5.02486 15.77018 11957 ft 226 kts 330°
2026-05-04 21:17 -5.01155 15.76208 11957 ft 226 kts 330°
2026-05-04 21:17 -4.99806 15.75388 11954 ft 226 kts 330°
2026-05-04 21:18 -4.98464 15.74570 11955 ft 226 kts 330°
2026-05-04 21:18 -4.97117 15.73751 11955 ft 226 kts 330°
2026-05-04 21:18 -4.95787 15.72942 11957 ft 226 kts 330°
2026-05-04 21:18 -4.94443 15.72124 11951 ft 226 kts 330°
2026-05-04 21:19 -4.93089 15.71301 11955 ft 227 kts 330°
2026-05-04 21:19 -4.91739 15.70481 11952 ft 227 kts 330°
2026-05-04 21:19 -4.90406 15.69667 11950 ft 227 kts 330°
2026-05-04 21:19 -4.89053 15.68844 11951 ft 227 kts 330°
2026-05-04 21:20 -4.87699 15.68022 11951 ft 227 kts 330°
2026-05-04 21:20 -4.86349 15.67199 11953 ft 227 kts 330°
2026-05-04 21:20 -4.84998 15.66379 11953 ft 227 kts 330°
2026-05-04 21:20 -4.83661 15.65566 11951 ft 227 kts 330°
2026-05-04 21:21 -4.82309 15.64743 11949 ft 226 kts 330°
2026-05-04 21:21 -4.80957 15.63922 11950 ft 226 kts 330°
2026-05-04 21:21 -4.79625 15.63111 11949 ft 226 kts 330°
2026-05-04 21:21 -4.78278 15.62292 11946 ft 226 kts 330°
2026-05-04 21:22 -4.76931 15.61473 11948 ft 226 kts 330°
2026-05-04 21:22 -4.75585 15.60655 11946 ft 226 kts 330°
2026-05-04 21:22 -4.74232 15.59834 11943 ft 226 kts 330°
2026-05-04 21:22 -4.72900 15.59021 11944 ft 226 kts 330°
2026-05-04 21:23 -4.71548 15.58200 11941 ft 226 kts 329°
2026-05-04 21:23 -4.70213 15.57388 11945 ft 226 kts 329°
2026-05-04 21:23 -4.68862 15.56568 11943 ft 226 kts 330°
2026-05-04 21:23 -4.67511 15.55747 11942 ft 226 kts 330°
2026-05-04 21:24 -4.66165 15.54928 11941 ft 226 kts 330°
2026-05-04 21:24 -4.64827 15.54115 11943 ft 226 kts 329°
2026-05-04 21:24 -4.63492 15.53303 11945 ft 226 kts 330°
2026-05-04 21:24 -4.62144 15.52485 11943 ft 226 kts 329°
2026-05-04 21:25 -4.60792 15.51673 11943 ft 225 kts 332°
2026-05-04 21:25 -4.59336 15.51121 11941 ft 223 kts 345°
2026-05-04 21:25 -4.57868 15.50694 11941 ft 223 kts 344°
2026-05-04 21:25 -4.56384 15.50222 11943 ft 223 kts 343°
2026-05-04 21:26 -4.54907 15.49738 11945 ft 223 kts 343°
2026-05-04 21:26 -4.53437 15.49264 11949 ft 223 kts 343°
2026-05-04 21:26 -4.51945 15.48783 11951 ft 223 kts 343°
2026-05-04 21:26 -4.50462 15.48304 11951 ft 224 kts 343°
2026-05-04 21:27 -4.48994 15.47832 11954 ft 224 kts 343°
2026-05-04 21:27 -4.47509 15.47353 11956 ft 224 kts 343°
2026-05-04 21:27 -4.46021 15.46873 11956 ft 224 kts 343°
2026-05-04 21:27 -4.44532 15.46393 11957 ft 224 kts 343°
2026-05-04 21:28 -4.43066 15.45920 11959 ft 224 kts 343°
2026-05-04 21:28 -4.41567 15.45436 11957 ft 224 kts 343°
2026-05-04 21:28 -4.40100 15.44965 11956 ft 224 kts 343°
2026-05-04 21:28 -4.38612 15.44484 11955 ft 224 kts 343°
2026-05-04 21:29 -4.37125 15.44005 11959 ft 224 kts 343°
2026-05-04 21:29 -4.35639 15.43526 11954 ft 224 kts 343°
2026-05-04 21:29 -4.34169 15.43053 11960 ft 224 kts 343°
2026-05-04 21:29 -4.32677 15.42571 11957 ft 224 kts 343°
2026-05-04 21:30 -4.31188 15.42092 11957 ft 224 kts 343°
2026-05-04 21:30 -4.29718 15.41618 11957 ft 224 kts 343°
2026-05-04 21:30 -4.28229 15.41139 11954 ft 224 kts 343°
2026-05-04 21:30 -4.26740 15.40658 11954 ft 224 kts 343°
2026-05-04 21:31 -4.23780 15.39705 11975 ft 224 kts 343°
2026-05-04 21:31 -4.22291 15.39226 11975 ft 224 kts 343°
2026-05-04 21:31 -4.20799 15.38744 11979 ft 224 kts 343°
2026-05-04 21:32 -4.19329 15.38271 11979 ft 224 kts 343°
2026-05-04 21:32 -4.17839 15.37790 11980 ft 224 kts 343°
2026-05-04 21:32 -4.16351 15.37312 11975 ft 224 kts 343°
2026-05-04 21:32 -4.14859 15.36831 11977 ft 224 kts 343°
2026-05-04 21:33 -4.13386 15.36356 11979 ft 224 kts 343°
2026-05-04 21:33 -4.11889 15.35874 11973 ft 224 kts 343°
2026-05-04 21:33 -4.10417 15.35400 11977 ft 224 kts 343°
2026-05-04 21:33 -4.08932 15.34922 11972 ft 224 kts 343°
2026-05-04 21:34 -4.07440 15.34441 11978 ft 224 kts 343°
2026-05-04 21:34 -4.05950 15.33961 11974 ft 225 kts 343°
2026-05-04 21:34 -4.04452 15.33480 11971 ft 225 kts 343°
2026-05-04 21:34 -4.02976 15.33004 11972 ft 225 kts 343°
2026-05-04 21:35 -4.01487 15.32524 11976 ft 225 kts 343°
2026-05-04 21:35 -3.99989 15.32042 11971 ft 225 kts 343°
2026-05-04 21:35 -3.98515 15.31567 11972 ft 225 kts 343°
2026-05-04 21:35 -3.97020 15.31087 11972 ft 225 kts 343°
2026-05-04 21:36 -3.95519 15.30602 11974 ft 226 kts 343°
2026-05-04 21:36 -3.94036 15.30125 11976 ft 225 kts 343°
2026-05-04 21:36 -3.92525 15.29638 11975 ft 225 kts 343°
2026-05-04 21:36 -3.91048 15.29163 11974 ft 225 kts 343°
2026-05-04 21:37 -3.89551 15.28683 11973 ft 225 kts 343°
2026-05-04 21:37 -3.87986 15.28520 11758 ft 229 kts
2026-05-04 21:37 -3.86492 15.29053 11524 ft 229 kts 33°
2026-05-04 21:37 -3.85385 15.30164 11308 ft 229 kts 58°
2026-05-04 21:38 -3.84858 15.31660 11096 ft 229 kts 83°
2026-05-04 21:38 -3.85028 15.33240 10889 ft 229 kts 108°
2026-05-04 21:38 -3.85860 15.34592 10693 ft 231 kts 134°
2026-05-04 21:38 -3.87180 15.35460 10498 ft 232 kts 158°
2026-05-04 21:39 -3.88757 15.35783 10284 ft 234 kts 176°
2026-05-04 21:39 -3.90406 15.35811 10021 ft 238 kts 176°
2026-05-04 21:39 -3.92061 15.36031 9751 ft 241 kts 168°
2026-05-04 21:39 -3.93723 15.36380 9456 ft 245 kts 168°
2026-05-04 21:40 -3.95389 15.36695 9142 ft 248 kts 169°
2026-05-04 21:40 -3.97107 15.36994 8846 ft 251 kts 169°
2026-05-04 21:40 -3.98837 15.37303 8546 ft 253 kts 169°
2026-05-04 21:40 -4.00579 15.37618 8277 ft 254 kts 169°
2026-05-04 21:41 -4.02319 15.37933 8001 ft 255 kts 169°
2026-05-04 21:41 -4.04071 15.38248 7732 ft 255 kts 169°
2026-05-04 21:41 -4.05805 15.38561 7432 ft 258 kts 169°
2026-05-04 21:41 -4.07600 15.38884 7036 ft 263 kts 169°
2026-05-04 21:42 -4.09416 15.39212 6647 ft 267 kts 169°
2026-05-04 21:42 -4.11256 15.39544 6254 ft 269 kts 169°
2026-05-04 21:42 -4.13088 15.39875 5875 ft 270 kts 169°
2026-05-04 21:42 -4.14939 15.40207 5479 ft 270 kts 169°
2026-05-04 21:43 -4.16790 15.40541 5096 ft 270 kts 169°
2026-05-04 21:43 -4.18635 15.40874 4725 ft 269 kts 170°
2026-05-04 21:43 -4.20478 15.41206 4329 ft 268 kts 170°
2026-05-04 21:43 -4.22297 15.41535 3947 ft 268 kts 171°
2026-05-04 21:44 -4.24133 15.41866 3559 ft 266 kts 171°
2026-05-04 21:44 -4.25944 15.42192 3181 ft 261 kts 171°
2026-05-04 21:44 -4.27714 15.42511 2790 ft 256 kts 171°
2026-05-04 21:44 -4.29436 15.42822 2407 ft 252 kts 170°
2026-05-04 21:45 -4.31156 15.43137 2034 ft 250 kts 170°
2026-05-04 21:45 -4.32821 15.43436 1994 ft 231 kts 170°
2026-05-04 21:45 -4.34189 15.44120 1977 ft 214 kts 134°
2026-05-04 21:45 -4.34929 15.45308 2080 ft 192 kts 120°
2026-05-04 21:46 -4.35609 15.46365 2039 ft 168 kts 132°
2026-05-04 21:46 -4.36531 15.46760 1847 ft 134 kts 189°
2026-05-04 21:46 -4.37275 15.46313 1400 ft 124 kts 224°
2026-05-04 21:46 -4.37780 15.45674 1151 ft 112 kts 236°
2026-05-04 21:47 -4.38199 15.45030 1023 ft 108 kts 236°
2026-05-04 21:47 -4.38556 15.44476 1013 ft 71 kts 237°
2026-05-04 21:47 -4.38735 15.44200 1011 ft 29 kts 237°
2026-05-04 21:47 -4.38832 15.44096 1009 ft 12 kts 184°
2026-05-04 21:48 -4.38903 15.44127 1009 ft 12 kts 149°
2026-05-04 21:48 -4.38963 15.44169 1010 ft 7 kts 114°
2026-05-04 21:48 -4.38959 15.44204 1010 ft 7 kts 63°
2026-05-04 21:48 -4.38917 15.44270 1010 ft 15 kts 57°
2026-05-04 21:49 -4.38855 15.44362 1010 ft 15 kts 58°
2026-05-04 21:49 -4.38843 15.44450 1011 ft 11 kts 97°
2026-05-04 21:49 -4.38874 15.44501 1010 ft 7 kts 162°
2026-05-04 21:49 -4.38899 15.44499 1010 ft 0 kts 192°